Weather History for Taos, NM

Change the Weather History Date:

Friday, October 5, 2012

  Actual Average Record
Temperature  
Mean Temperature 58 °F -  
Max Temperature 73 °F 66 °F 80 °F (1997)
Min Temperature 42 °F 33 °F 21 °F (2013)
Degree Days  
Heating Degree Days 8    
Growing Degree Days 8 (Base 50)    
Moisture  
Dew Point 23 °F    
Average Humidity 27    
Maximum Humidity 46    
Minimum Humidity 15    
Precipitation  
Precipitation 0.00 in - - ()
Sea Level Pressure  
Sea Level Pressure 30.17 in    
Wind  
Wind Speed 8 mph (SW)    
Max Wind Speed 23 mph    
Max Gust Speed 31 mph    
Visibility 10 miles    
Events      
Averages and records for this station are not official NWS values.
T = Trace of Precipitation, MM = Missing Value Source: NWS Daily Summary

Daily Weather History Graph

Daily Weather History Graph

Search for Another Location

Airport:

Trip Planner

Search our weather history database for the weather conditions in past years. The results will help you decide how hot, cold, wet, or windy it might be!

Date:

Astronomy

Oct. 05, 2012 Rise Set
Actual Time 7:01 AM MDT 6:39 PM MDT
Civil Twilight 6:35 AM MDT 7:05 PM MDT
Nautical Twilight 6:06 AM MDT 7:35 PM MDT
Astronomical Twilight 5:36 AM MDT 8:05 PM MDT
Moon 10:13 PM MDT (10/5) 12:03 PM MDT (10/5)
Length of Visible Light 12h 29m
Length of Day
11h 37m
Waning Gibbous, 73% of the Moon is Illuminated
Oct 5
Waning Gibbous
Oct 8
Last Quarter
Oct 15
New
Oct 21
First Quarter
Oct 29
Full

Hourly Weather History & Observations

Time (MDT) Temp. Windchill Dew Point Humidity Pressure Visibility Wind Dir Wind Speed Gust Speed Precip Events Conditions
12:15 AM 48.2 °F - 19.4 °F 32% 30.20 in 10.0 mi SE 6.9 mph - N/A   Clear
12:35 AM 48.2 °F - 19.4 °F 32% 30.20 in 10.0 mi SSE 3.5 mph - N/A   Clear
12:55 AM 55.4 °F - 23.0 °F 29% 30.19 in 10.0 mi SSW 5.8 mph - N/A   Clear
1:15 AM 55.4 °F - 21.2 °F 26% 30.20 in 10.0 mi South 5.8 mph - N/A   Clear
1:35 AM 53.6 °F - 21.2 °F 28% 30.20 in 10.0 mi SSW 4.6 mph - N/A   Clear
1:55 AM 55.4 °F - 23.0 °F 29% 30.21 in 10.0 mi SW 8.1 mph - N/A   Clear
2:15 AM 53.6 °F - 23.0 °F 30% 30.21 in 10.0 mi SW 6.9 mph - N/A   Clear
2:35 AM 53.6 °F - 23.0 °F 30% 30.21 in 10.0 mi WSW 5.8 mph - N/A   Clear
2:55 AM 53.6 °F - 23.0 °F 30% 30.21 in 10.0 mi SW 6.9 mph - N/A   Clear
3:15 AM 51.8 °F - 23.0 °F 33% 30.20 in 10.0 mi SW 10.4 mph - N/A   Clear
3:35 AM 51.8 °F - 23.0 °F 33% 30.20 in 10.0 mi SW 10.4 mph - N/A   Clear
3:55 AM 50.0 °F - 23.0 °F 35% 30.20 in 10.0 mi SSW 8.1 mph - N/A   Clear
4:15 AM 50.0 °F - 24.8 °F 37% 30.20 in 10.0 mi SW 9.2 mph - N/A   Clear
4:35 AM 50.0 °F - 24.8 °F 37% 30.20 in 10.0 mi SW 8.1 mph - N/A   Clear
4:55 AM 48.2 °F - 24.8 °F 40% 30.20 in 10.0 mi SW 6.9 mph - N/A   Clear
5:15 AM 48.2 °F - 24.8 °F 40% 30.20 in 10.0 mi SW 8.1 mph - N/A   Clear
5:35 AM 48.2 °F - 24.8 °F 40% 30.20 in 10.0 mi WSW 6.9 mph - N/A   Clear
5:55 AM 46.4 °F 43.5 °F 23.0 °F 40% 30.21 in 10.0 mi SW 5.8 mph - N/A   Clear
6:15 AM 42.8 °F - 21.2 °F 42% 30.21 in 10.0 mi Calm Calm - N/A   Clear
6:35 AM 44.6 °F 43.1 °F 24.8 °F 46% 30.21 in 10.0 mi East 3.5 mph - N/A   Clear
6:55 AM 46.4 °F - 24.8 °F 43% 30.22 in 10.0 mi Calm Calm - N/A   Clear
7:15 AM 44.6 °F 43.1 °F 24.8 °F 46% 30.22 in 10.0 mi East 3.5 mph - N/A   Clear
7:35 AM 50.0 °F - 26.6 °F 40% 30.23 in 10.0 mi SSW 3.5 mph - N/A   Clear
7:55 AM 51.8 °F - 26.6 °F 38% 30.22 in 10.0 mi SW 6.9 mph - N/A   Clear
8:15 AM 55.4 °F - 28.4 °F 36% 30.24 in 10.0 mi Calm Calm - N/A   Clear
8:35 AM 57.2 °F - 28.4 °F 33% 30.24 in 10.0 mi Calm Calm - N/A   Clear
8:55 AM 57.2 °F - 28.4 °F 33% 30.24 in 10.0 mi Calm Calm - N/A   Clear
9:15 AM 59.0 °F - 28.4 °F 31% 30.24 in 10.0 mi SW 8.1 mph - N/A   Clear
9:35 AM 60.8 °F - 28.4 °F 29% 30.24 in 10.0 mi SW 10.4 mph - N/A   Clear
9:55 AM 62.6 °F - 28.4 °F 27% 30.23 in 10.0 mi WSW 11.5 mph - N/A   Clear
10:35 AM 62.6 °F - 28.4 °F 27% 30.22 in 10.0 mi WSW 9.2 mph 23.0 mph N/A   Clear
10:55 AM 64.4 °F - 28.4 °F 26% 30.22 in 10.0 mi SW 16.1 mph - N/A   Clear
11:15 AM 64.4 °F - 28.4 °F 26% 30.22 in 10.0 mi SSW 9.2 mph 18.4 mph N/A   Clear
11:35 AM 64.4 °F - 28.4 °F 26% 30.20 in 10.0 mi SW 9.2 mph 18.4 mph N/A   Clear
11:55 AM 66.2 °F - 28.4 °F 24% 30.20 in 10.0 mi SW 11.5 mph 17.3 mph N/A   Clear
12:35 PM 68.0 °F - 28.4 °F 23% 30.18 in 10.0 mi SW 13.8 mph 20.7 mph N/A   Clear
12:55 PM 69.8 °F - 28.4 °F 21% 30.17 in 10.0 mi WSW 11.5 mph 24.2 mph N/A   Clear
1:15 PM 71.6 °F - 26.6 °F 19% 30.15 in 10.0 mi West 18.4 mph 25.3 mph N/A   Clear
1:35 PM 71.6 °F - 26.6 °F 19% 30.15 in 10.0 mi SW 19.6 mph 29.9 mph N/A   Partly Cloudy
1:55 PM 69.8 °F - 24.8 °F 18% 30.14 in 10.0 mi West 16.1 mph 25.3 mph N/A   Partly Cloudy
2:15 PM 73.4 °F - 26.6 °F 18% 30.13 in 10.0 mi WSW 17.3 mph 25.3 mph N/A   Partly Cloudy
2:35 PM 71.6 °F - 26.6 °F 19% 30.12 in 9.0 mi WSW 17.3 mph 31.1 mph N/A   Partly Cloudy
2:55 PM 71.6 °F - 24.8 °F 17% 30.11 in 10.0 mi SW 20.7 mph 26.5 mph N/A   Scattered Clouds
3:15 PM 73.4 °F - 26.6 °F 18% 30.10 in 10.0 mi West 19.6 mph 28.8 mph N/A   Mostly Cloudy
3:35 PM 73.4 °F - 26.6 °F 18% 30.10 in 10.0 mi West 17.3 mph 26.5 mph N/A   Partly Cloudy
3:55 PM 73.4 °F - 24.8 °F 16% 30.10 in 10.0 mi West 16.1 mph 29.9 mph N/A   Clear
4:15 PM 71.6 °F - 23.0 °F 16% 30.10 in 10.0 mi SW 23.0 mph 26.5 mph N/A   Partly Cloudy
4:35 PM 71.6 °F - 23.0 °F 16% 30.10 in 10.0 mi WSW 21.9 mph 27.6 mph N/A   Scattered Clouds
4:55 PM 73.4 °F - 23.0 °F 15% 30.10 in 10.0 mi West 15.0 mph 23.0 mph N/A   Partly Cloudy
5:15 PM 71.6 °F - 21.2 °F 15% 30.11 in 10.0 mi West 18.4 mph 23.0 mph N/A   Clear
5:35 PM 68.0 °F - 19.4 °F 16% 30.11 in 10.0 mi West 12.7 mph - N/A   Partly Cloudy
5:55 PM 69.8 °F - 21.2 °F 16% 30.11 in 10.0 mi WNW 13.8 mph - N/A   Clear
6:15 PM 68.0 °F - 21.2 °F 17% 30.12 in 10.0 mi West 11.5 mph - N/A   Clear
6:35 PM 64.4 °F - 19.4 °F 18% 30.12 in 10.0 mi WNW 8.1 mph - N/A   Clear
6:55 PM 62.6 °F - 19.4 °F 19% 30.12 in 10.0 mi West 8.1 mph - N/A   Clear
7:15 PM 57.2 °F - 17.6 °F 21% 30.13 in 10.0 mi WNW 8.1 mph - N/A   Clear
7:35 PM 57.2 °F - 19.4 °F 23% 30.14 in 10.0 mi NW 5.8 mph - N/A   Clear
7:55 PM 59.0 °F - 19.4 °F 22% 30.14 in 10.0 mi NW 3.5 mph - N/A   Clear
8:15 PM 57.2 °F - 19.4 °F 23% 30.15 in 10.0 mi Calm Calm - N/A   Clear
8:35 PM 55.4 °F - 19.4 °F 25% 30.15 in 10.0 mi Calm Calm - N/A   Clear
8:55 PM 59.0 °F - 19.4 °F 22% 30.15 in 10.0 mi Calm Calm - N/A   Clear
9:35 PM 59.0 °F - 19.4 °F 22% 30.16 in 10.0 mi WSW 4.6 mph - N/A   Clear
9:55 PM 57.2 °F - 19.4 °F 23% 30.15 in 10.0 mi SW 5.8 mph - N/A   Clear
10:15 PM 55.4 °F - 17.6 °F 23% 30.15 in 10.0 mi South 8.1 mph - N/A   Clear
10:35 PM 53.6 °F - 17.6 °F 24% 30.15 in 10.0 mi SSE 5.8 mph - N/A   Clear
10:55 PM 51.8 °F - 17.6 °F 26% 30.15 in 10.0 mi SE 5.8 mph - N/A   Clear
11:15 PM 53.6 °F - 19.4 °F 26% 30.15 in 10.0 mi SSW 3.5 mph - N/A   Clear
11:35 PM 55.4 °F - 19.4 °F 25% 30.13 in 10.0 mi SSW 4.6 mph - N/A   Clear
11:55 PM 53.6 °F - 17.6 °F 24% 30.13 in 10.0 mi South 5.8 mph - N/A   Clear